"Pseudo-MPEC" for M14TLCi

Created 2018 Apr 23 3:18:02 UT using Find_Orb

Click here for an explanation of pseudo-MPECs

 
 Astrometry: 
     M14TLCi  C2018 04 16ldAstrometryH6g*/]?\x%:BbJCdNJF.wJ.b^[e*FgAgq*Kjf#o+C41
     M14TLCi  C2018 04 16=lGAi2p9XXj\fjDJcredacted;/QPmZrseeGGvp,mbSi,?9yQqj3C41
     M14TLCi  C2018 04 16]41anOptZB6[:]\jTh^puMofF7F4t4y5)N,W.`yyA:\W*6yNEOCPC41

Station data:
(C41) MASTER-II Observatory, Kislovodsk  (N43.741685 E42.661260)  Russia.

Orbital elements:  M14TLCi
   Perihelion 2018 Jul 23.617589 +/- 50.8 TT = 14:49:19 (JD 2458323.117589)
Epoch 2018 Apr 17.0 TT = JDT 2458225.5   Earth MOID: 0.0006   AutoNEOCP
M 256.15664 +/- 120                 (J2000 ecliptic)
n   1.06377706 +/- 0.835            Peri.  120.91994 +/- 100
a   0.95039096 +/- 0.497            Node   203.74357 +/- 110
e   0.1336319 +/- 0.261             Incl.   21.12366 +/- 33
P   0.93/338.41d           H 20.9   G  0.15   U 12.6  SR
q 0.82338838 +/- 0.33    Q 1.07739355 +/- 9.7
From 3 observations 2018 Apr. 16 (13.6 min); mean residual 0".76
Residuals in arcseconds: 
180416 C41  .23+  .72+    180416 C41  .46-  1.5-    180416 C41  .23+  .73+    

Ephemerides (geocentric):
Date (UTC) HH   RA              Dec         delta   r     elong  mag " sig PA
---- -- -- --  ------------   ------------  ------ ------ -----  --- ---- ---
2018 04 23 03  23 38 55.157   +76 04 01.36  .06077 .98269  66.5 19.0  26d  76
2018 04 23 04  23 38 58.407   +76 04 11.01  .06105 .98260  66.5 19.0  26d  76
2018 04 23 05  23 39 01.645   +76 04 20.48  .06132 .98251  66.5 19.0  26d  76
2018 04 23 06  23 39 04.874   +76 04 29.76  .06159 .98242  66.4 19.0  26d  76
2018 04 23 07  23 39 08.092   +76 04 38.87  .06187 .98233  66.4 19.0  26d  76
2018 04 23 08  23 39 11.301   +76 04 47.79  .06214 .98223  66.4 19.1  26d  76
2018 04 23 09  23 39 14.500   +76 04 56.55  .06242 .98214  66.4 19.1  27d  76
2018 04 23 10  23 39 17.689   +76 05 05.12  .06269 .98205  66.4 19.1  27d  76
2018 04 23 11  23 39 20.869   +76 05 13.53  .06296 .98196  66.4 19.1  27d  76
2018 04 23 12  23 39 24.040   +76 05 21.77  .06324 .98187  66.4 19.1  27d  76
2018 04 23 13  23 39 27.203   +76 05 29.84  .06351 .98177  66.4 19.1  27d  76
2018 04 23 14  23 39 30.357   +76 05 37.74  .06378 .98168  66.4 19.1  27d  77
2018 04 23 15  23 39 33.503   +76 05 45.47  .06406 .98159  66.4 19.1  27d  77
2018 04 23 16  23 39 36.641   +76 05 53.05  .06433 .98150  66.4 19.1  27d  77
2018 04 23 17  23 39 39.770   +76 06 00.46  .06461 .98141  66.4 19.1  27d  77
2018 04 23 18  23 39 42.893   +76 06 07.71  .06488 .98131  66.3 19.1  27d  77
2018 04 23 19  23 39 46.007   +76 06 14.81  .06515 .98122  66.3 19.1  27d  77
2018 04 23 20  23 39 49.115   +76 06 21.75  .06543 .98113  66.3 19.2  27d  77
2018 04 23 21  23 39 52.215   +76 06 28.53  .06570 .98104  66.3 19.2  27d  77
2018 04 23 22  23 39 55.308   +76 06 35.16  .06598 .98094  66.3 19.2  27d  77
2018 04 23 23  23 39 58.395   +76 06 41.63  .06625 .98085  66.3 19.2  27d  77
2018 04 24 00  23 40 01.475   +76 06 47.96  .06652 .98076  66.3 19.2  27d  77
2018 04 24 01  23 40 04.549   +76 06 54.14  .06680 .98067  66.3 19.2  28d  77
2018 04 24 02  23 40 07.617   +76 07 00.17  .06707 .98058  66.3 19.2  28d  77
2018 04 24 03  23 40 10.679   +76 07 06.06  .06734 .98048  66.3 19.2  28d  77
2018 04 24 04  23 40 13.735   +76 07 11.79  .06762 .98039  66.3 19.2  28d  77
2018 04 24 05  23 40 16.785   +76 07 17.39  .06789 .98030  66.3 19.2  28d  77
2018 04 24 06  23 40 19.830   +76 07 22.85  .06816 .98021  66.2 19.2  28d  77
2018 04 24 07  23 40 22.870   +76 07 28.16  .06844 .98011  66.2 19.2  28d  77
2018 04 24 08  23 40 25.904   +76 07 33.33  .06871 .98002  66.2 19.3  28d  77
2018 04 24 09  23 40 28.934   +76 07 38.37  .06898 .97993  66.2 19.3  28d  77
2018 04 24 10  23 40 31.959   +76 07 43.27  .06926 .97983  66.2 19.3  28d  77
2018 04 24 11  23 40 34.979   +76 07 48.04  .06953 .97974  66.2 19.3  28d  77
2018 04 24 12  23 40 37.995   +76 07 52.67  .06980 .97965  66.2 19.3  28d  77
2018 04 24 13  23 40 41.007   +76 07 57.16  .07008 .97956  66.2 19.3  28d  77
2018 04 24 14  23 40 44.014   +76 08 01.53  .07035 .97946  66.2 19.3  28d  77
2018 04 24 15  23 40 47.017   +76 08 05.76  .07062 .97937  66.2 19.3  28d  77
2018 04 24 16  23 40 50.017   +76 08 09.87  .07090 .97928  66.2 19.3  28d  77
2018 04 24 17  23 40 53.013   +76 08 13.85  .07117 .97919  66.2 19.3  28d  77
2018 04 24 18  23 40 56.005   +76 08 17.70  .07144 .97909  66.1 19.3  28d  77
2018 04 24 19  23 40 58.994   +76 08 21.42  .07172 .97900  66.1 19.3  28d  77
2018 04 24 20  23 41 01.979   +76 08 25.02  .07199 .97891  66.1 19.3  29d  77
2018 04 24 21  23 41 04.962   +76 08 28.49  .07226 .97881  66.1 19.4  29d  78
2018 04 24 22  23 41 07.941   +76 08 31.85  .07254 .97872  66.1 19.4  29d  78
2018 04 24 23  23 41 10.918   +76 08 35.08  .07281 .97863  66.1 19.4  29d  78
2018 04 25 00  23 41 13.892   +76 08 38.19  .07308 .97854  66.1 19.4  29d  78
2018 04 25 01  23 41 16.863   +76 08 41.18  .07336 .97844  66.1 19.4  29d  78
2018 04 25 02  23 41 19.832   +76 08 44.05  .07363 .97835  66.1 19.4  29d  78